Погода в Саскылахе

Погода в Саскылахе : погода сейчас, прогноз погоды и архив. Всё, что Вы хотите узнать о погоде в Саскылахе!

Хотите узнать прогноз погоды в Саскылахе? Тогда Вам сюда: Погода в Саскылахе

Поиск расширенной информации на нашем сайте:

Другие новости

Новости СМИ2

Главная страница сайта

Новости сайта

03.07.2017

Напоминаем, что на нашем специализированном сайте Метеоцентр.Азия вы можете получить высокодетализированные автоматические прогнозы погоды по пунктам России, СНГ и мира в авиационном формате (включающие направление и скорость ветра, видимость, явления погоды, количество и форму облачности, нижнюю и верхнюю границу облачности).


Погода в Саскылахе - сегодня

Время (UTC), дата Ветер
(°,м/с) 
Видим.   Явления Облачность Т
(°С)
Тd
(°С)
f(%) Тe
(°С)
Pmin
(гПа)
dP
(гПа)
Po
(мм)
O2
(г/м3)
Тmin Tmax R s Состояние
почвы
21 16.10.18 260 (З) н/о    н/о 
-3.1 -4.6 89 -5  1004.5  0.1  752  307           
00 17.10.18 230 (ЮЗ) 20000 м    10/10 720 м 
[Sc]
-2.2 -3.6 90 -4  1004.9  752  306  -4.9        замёрзшая 
03 17.10.18 240 (ЮЗ) 20000 м  в посл. час ливневой снег  10/0 средняя 
[Ac und]
-1.3 -3.2 87 -4  1005.2  0.4  752  305           
09 17.10.18 180 (Ю) 20000 м    10/0 средняя 
[Ac und]
-4.4 -7.1 81 -6  1006.1  0.1  753  309           
12 17.10.18 170 (Ю) 20000 м    10/10 1020 м 
[Sc]
-3.8 -7 78 -7  1006.8  -1.5  752  308    -1.3    замёрзшая 
15 17.10.18 180 (Ю) 20000 м    10/0 средняя 
[Ac und]
-4.1 -6.3 85 -8  1003.2  -1.4  751  308           
18 17.10.18 180 (Ю) 20000 м    10/0 средняя 
[Ac und]
-3.7 -5.5 87 -9  1001.7  -1.5  749  307           
21 17.10.18 190 (Ю) 20000 м    10/6 960 м средняя 
[Sc|Ac und]
-3.9 -5.9 86 -8  1000.6  -1.1  749  307           
00 18.10.18 200 (Ю) 20000 м    10/6 1000 м средняя 
[Sc|Ac und]
-3.5 -5.5 86 -8  999.8  -0.8  748  306  -4.2        замёрзшая 
03 18.10.18 210 (ЮЗ) 20000 м    8/4 900 м средняя 
[Sc|Ac As]
-3.4 -5.6 85 -7  999.7  -0.1  748  306           
06 18.10.18 130 (ЮВ) 20000 м    8/4 900 м средняя 
[Sc|Ac As]
-3.5 -6 83 -3  999.7  748  306           
09 18.10.18 190 (Ю) 20000 м    10/0 средняя 
[Ac und]
-3.8 -6 85 -5  1000.1  0.4  748  306           
12 18.10.18 230 (ЮЗ) 20000 м    10/0 средняя 
[Ac und]
-4.1 -5.6 89 -6  1000.1  748  307    -3.4      замёрзшая 
15 18.10.18 300 (СЗ) 20000 м    10/6 800 м средняя 
[Sc|Ac und]
-3.6 -4.7 92 -7  1001.1  749  306           
18 18.10.18 300 (СЗ) 20000 м    ясно 
-8.7 -9.4 95 -12  1002.9  1.8  750  313           
21 18.10.18 190 (Ю) 20000 м    ясно 
-9.3 -10.6 90 -9  1004.9  752  315           
00 19.10.18 240 (ЮЗ) 20000 м    10/10 1110 м 
[Sc]
-7.1 -9.4 84 -11  1005.3  0.4  752  312  -9.4        замёрзшая 
09 19.10.18 260 (З) 20000 м    10/10 660 м 
[Sc]
-5.7 -7.9 84 -9  1008.8  1.8  755  311           
12 19.10.18 260 (З) 20000 м    10/0 средняя 
[Ac und]
-6.1 -8 86 -11  1009.4  0.6  755  312    -5.7  0.8    замёрзшая 
15 19.10.18 260 (З) 20000 м    10/10 360 м 
[Sc]
-5.8 -7.7 86 -8  1010.5  1.1  756  312           
18 19.10.18 230 (ЮЗ) 20000 м    10/10 1110 м 
[Sc]
-5.9 -8.2 84 -8  1010.5  756  312           
21 19.10.18 220 (ЮЗ) 20000 м    10/10 1110 м 
[Sc]
-6.1 -8 86 -8  1011  0.5  756  313           
00 20.10.18 тихо ()   20000 м    10/10 900 м 
[Sc]
-6.2 -8.6 83 -6  1011  756  313  -6.3        замёрзшая 
03 20.10.18 220 (ЮЗ) 20000 м    10/0 средняя 
[Ac und]
-5.8 -8.1 84 -7  1011  756  312           
06 20.10.18 220 (ЮЗ) 20000 м    10/0 средняя 
[Ac und]
-5.8 -8.9 79 -9  1011.1  0.1  757  312           
Время (UTC), дата Ветер
(°,м/с) 
Видим.   Явления Облачность Т
(°С)
Тd
(°С)
f(%) Тe
(°С)
Pmin
(гПа)
dP
(гПа)
Po
(мм)
O2
(г/м3)
Тmin Tmax R s Состояние
почвы

Для получения пояснительной информации подведите курсор к названию столбца.

ПОГОДА в Саскылахе - архив

Всё, что Вы хотите узнать о погоде в Саскылахе - удобно и подробно!

Выберите нужную дату (начиная с 1 января 2015* года) и нажмите кнопку "Найти".
Будут отображены архивные сводки погоды по пункту Саскылах, начиная с указанной даты.


Отображать данные в формате CSV (для использования в таблицах Excel)


Внимание! Наш архив погоды предназначен исключительно для личного некоммерческого использования в познавательных целях. Если Вам необходимы официальные справки о состоянии погоды (для производственных, юридических, коммерческих и т.п. целей), обращайтесь в органы Росгидромета.

*Примечание: данная дата относится к архиву по метеостанциям СССР (Россия, СНГ, Балтия).
Архив по метеостанциям Зарубежной Европы и Азии (кроме Китая) хранится 10 дней, по другим регионам земного шара (Китай, Африка, Америка, Австралия, Океания) - 1 день.

Саскылах - район местоположения метеостанции


Название, широта, долгота, высота метеостанции:
Саскылах 72°ш. 114.1°д. 18 м над ур. моря [Российская Федерация]

Дополнительная информация

В oтличие oт бoльшинства пoгoдных сайтoв мы публикуем пoдрoбную метеoинфoрмацию в детальнoм прoфессиoнальнoм фoрмате.

Характеристики температуры и влажнoсти вoздуха измеряются на высoте 2 м в тени вдали oт зданий и деревьев.
Скoрoсть ветра измеряется на высoте 10 м (на урoвне рoста челoвека скoрoсть ветра ниже в 1.5-2 раза). Если метеoстанция нахoдится в гoрoде или в лесу, тo скoрoсть ветра занижена на 2-4 м/с пo сравнению с oткрытым местoм. Скoрoсть ветра над акватoриями крупных рек и oзёр, а также на вершинах хoлмoв на 2-5 м/с выше, чем в oбычных услoвиях.
Атмoсфернoе давление в разных тoчках местнoсти мoжет значительнo oтличаться oт давления на метеoстанции, в зависимoсти oт услoвий рельефа (при пoдъёме на 10 м давление пoнижается примернo на 1 мм рт.ст.).